www.pogodaiklimat.ru

Погода и климат >> Архив погоды >> Россия >> Астраханская область >> Черный Яр


ПОГОДА в Черный Яр

  • Прогноз погоды в Черный Яр
  • Монитор погоды в Черный Яр

АРХИВ ПОГОДЫ в Черный Яр

Время (UTC), дата Ветер
(напр.,м/с)
 
Видим.   Явления Облачность Т
(С)
Тd
(С)
f
(%)
Тe
(С)
Тes
(С)
Комфортность P
(гПа)
Po
(гПа)
Тmin
(С)
Tmax
(С)
R
(мм)
R24
(мм)
S
(см)
06 11.06 В 2 10 км ясно +28.4 +8.6 29 +28 +40 жарко 1018.5 1017.8
09 11.06 ЮВ 3 10 км 1/0
[Ci fib]
+33.0 +0.6 13 +30 +45 жарко 1017.6 1017.0
12 11.06 Ю 2 10 км 3/0
[Ci fib]
+35.4 +0.3 11 +32 +43 жарко 1015.7 1015.0
15 11.06 штиль 0 10 км 1/0
[Ci fib]
+35.4 +0.4 11 +32 +34 жарко 1014.6 1014.0 +35.6
18 11.06 В 1 10 км ясно +24.9 +10.4 40 +26 +26 жарко 1015.0 1014.4
21 11.06 ЮВ 1 10 км ясно +24.7 +7.1 32 +25 +25 комфорт 1015.3 1014.7
00 12.06 СЗ 1 10 км ясно +19.7 +11.9 61 +22 +22 комфорт 1014.9 1014.3
03 12.06 СВ 2 10 км 3/0
[Ci fib]
+22.3 +9.9 45 +24 +26 комфорт 1014.9 1014.3 +18.5
06 12.06 С 3 10 км 4/0
[Ci fib]
+32.4 +7.3 21 +31 +40 жарко 1014.7 1014.1
09 12.06 ЮВ 3 10 км 8/0
[Ci fib]
+35.5 +2.2 12 +32 +45 жарко 1013.8 1013.2
12 12.06 Ю 3 10 км 8/0
[Ci fib]
+36.5 +2.3 12 +33 +41 жарко 1012.4 1011.8
15 12.06 ЮВ 1 10 км 3/0
[Ci fib]
+35.8 +1.1 11 +32 +34 жарко 1011.3 1010.7 +36.6
18 12.06 штиль 0 10 км ясно +25.3 +6.9 31 +25 +25 комфорт 1011.5 1010.9
21 12.06 З 2 10 км ясно +26.8 +2.8 21 +25 +25 комфорт 1011.9 1011.3
00 13.06 ЮЗ 2 10 км ясно +19.6 +3.0 33 +21 +21 комфорт 1011.1 1010.4
03 13.06 СВ 2 10 км 3/0
[Ci fib]
+24.1 +7.8 35 +24 +26 комфорт 1011.0 1010.4 +19.0
06 13.06 С 2 10 км ясно +33.0 +7.0 20 +31 +43 жарко 1011.5 1010.9
09 13.06 С 2 10 км 3/3 1000 м
[Cu med, cong]
+37.6 +1.4 10 +34 +47 очень
жарко
1010.9 1010.3
12 13.06 С 7-13
{13}
10 км пыльный позёмок 5/5 1000 м
[Cu med, cong]
+34.9 +9.9 22 +34 +35 очень
жарко
1010.7 1010.1
15 13.06 С 7-12
{14}
10 км пыльный позёмок 4/1 1000 м
[Cu med, cong Ci fib]
+30.4 +10.7 30 +31 +31 жарко 1012.4 1011.8 +38.1
18 13.06 С 6-11
{14}
10 км пыльный позёмок 4/0
[Ci fib]
+23.9 +8.5 37 +24 +24 комфорт 1015.9 1015.2
21 13.06 СВ 5-10
{13}
10 км пыльный позёмок 3/0
[Ci fib]
+19.3 +0.2 28 +19 +19 1018.1 1017.4
00 14.06 С 4
{10}
10 км ясно +15.7 +1.7 39 +15 +15 1018.9 1018.2
03 14.06 СВ 5
{10}
10 км ясно +14.9 +1.6 40 +14 +15 1020.2 1019.6 +14.1
06 14.06 СВ 6-10
{10}
10 км ясно +21.2 +0.2 25 +21 +26 комфорт 1020.8 1020.2
09 14.06 СВ 5
{10}
10 км ясно +24.7 -2.8 16 +23 +33 комфорт 1020.1 1019.5
12 14.06 СВ 3 10 км ясно +26.4 -4.6 13 +24 +33 комфорт 1018.9 1018.2
15 14.06 СЗ 1 10 км 1/0
[Ci fib]
+26.1 -5.6 12 +23 +26 комфорт 1017.6 1017.0 +26.7
18 14.06 СЗ 1 10 км 1/0
[Ac cast]
+20.5 -1.3 23 +22 +22 комфорт 1017.7 1017.0
21 14.06 СЗ 1 10 км ясно +16.2 -1.4 30 +17 +17 1017.1 1016.4
00 15.06 ЮЗ 1 10 км ясно +12.1 +0.7 46 +12 +12 1016.0 1015.3
03 15.06 ЮЗ 1 10 км ясно +19.1 +1.0 30 +20 +23 1015.7 1015.0 +11.9
06 15.06 ЮЗ 4 10 км ясно +26.9 -3.9 13 +24 +32 комфорт 1014.9 1014.3
09 15.06 ЮЗ 5
{11}
10 км ясно +30.6 -4.3 10 +27 +37 жарко 1013.3 1012.7
12 15.06 З 6
{12}
10 км ясно +32.9 -1.6 11 +29 +34 жарко 1011.1 1010.4
15 15.06 З 4
{11}
10 км ясно +32.3 +4.4 17 +30 +31 жарко 1009.8 1009.1 +33.6
18 15.06 С 3 10 км 5/0
[Ac und]
+27.5 +8.8 31 +28 +28 жарко 1010.2 1009.6
21 15.06 В 2 10 км 8/0
[Ac cast]
+22.9 +5.9 33 +23 +23 комфорт 1010.1 1009.4
00 16.06 В 1 10 км 3/0
[Ac und]
+20.5 +7.6 43 +23 +23 комфорт 1009.7 1009.1
03 16.06 СВ 2 10 км 1/0
[Ci fib]
+21.1 +8.9 46 +22 +24 комфорт 1010.0 1009.4 +19.8
06 16.06 СВ 3 10 км 8/3 1000 м
[Cu med, cong Ac trans Ci fib]
+26.9 +8.1 30 +27 +31 жарко 1010.6 1009.9
09 16.06 С 3 10 км 9/0
[Ac trans Ci fib]
+29.4 +12.4 35 +30 +41 жарко 1010.1 1009.5
12 16.06 С 4 10 км 9/1 1000 м
[Cu med, cong Ci fib]
+31.2 +11.3 29 +31 +37 жарко 1008.8 1008.2
15 16.06 СЗ 2 10 км гроза без осадков 9/4 600 м
[Cb calv Ac trans]
+29.5 +10.8 31 +30 +30 жарко 1008.5 1007.8 +31.9
18 16.06 С 2
{10}
10 км в посл. час гроза {ливн. осадки} 10/3 600 м
[Cb calv Ac cuf]
+20.7 +17.7 83 +25 +25 комфорт 1008.9 1008.3
21 16.06 СВ 3 10 км 10/3 600 м
[Cb calv Ac trans]
+20.4 +17.1 81 +24 +24 комфорт 1008.5 1007.9
00 17.06 СЗ 2
{10}
10 км {ливн. осадки} 10/3 600 м
[Cb calv Ac trans]
+18.5 +17.5 94 +20 +20 1010.5 1009.9
03 17.06 С 3 4000 м дымка 10/0
[Ac und]
+19.4 +17.7 90 +22 +22 комфорт 1009.6 1009.0 +18.3 3
06 17.06 С 3 10 км 4/0
[Ac cast]
+23.4 +17.5 69 +29 +36 душно 1010.6 1009.9
09 17.06 С 3 10 км 8/3 1000 м
[Cu med, cong Ac cast]
+27.8 +13.8 42 +30 +35 жарко 1011.2 1010.5
12 17.06 С 3 10 км 10/4 1000 м
[Cb calv Ac cuf]
+27.4 +14.3 45 +30 +31 жарко 1010.5 1009.9
15 17.06 СЗ 3 10 км 8/3 1000 м
[Cu med, cong Ci fib]
+28.9 +12.2 36 +30 +31 жарко 1010.0 1009.4 +29.1
18 17.06 СЗ 2 10 км 3/0
[Ac cast Ci fib]
+25.2 +13.4 48 +27 +27 жарко 1011.2 1010.6
21 17.06 СЗ 2 10 км 1/0
[Ac trans]
+21.2 +15.4 69 +24 +24 комфорт 1011.5 1010.8
00 18.06 С 1 10 км 1/0
[Ci fib]
+18.8 +14.3 75 +21 +21 комфорт 1011.2 1010.5

 

Местоположение метеостанции Черный Яр (Астраханская область, Россия): широта 48.07 долгота 46.12 высота над уровнем моря 5 м.

В архиве по умолчанию представлена погода в Черный Яр за последнюю неделю. Архивные данные за месяц целиком и за предыдущие месяцы, начиная с января 2011 года, Вы можете получить, выбрав интересующий диапазон дат из раскрывающегося списка и нажав кнопку "Ввод!".


*Определитесь, кто Вы:
робот инопланетянин человек

Внимание! Время в таблицах - всемирное. Для получения местного времени необходимо прибавить поправку, которая равна 4 ч.

Смотрите также архив погоды в соседних городах и на ближайших метеорологических станциях:

Погода в Верхнем Баскунчаке (Астраханская область, Россия) (48 км)
Погода в Юсте (Калмыкия, Россия) (106 км)
Погода в Малых Дербетах (Калмыкия, Россия) (107 км)
Погода в Харабали (Астраханская область, Россия) (113 км)
Погода в Урде (Западно-Казахстанская область, Казахстан) (124 км)
Погода в Эльтоне (Волгоградская область, Россия) (130 км)
Погода в Волгограде город (Волгоградская область, Россия) (140 км)
Погода в Кетченерах (Калмыкия, Россия) (143 км)
Погода в Волгограде (Волгоградская область, Россия) (151 км)
Погода в Жанибеке (Западно-Казахстанская область, Казахстан) (156 км)

Пояснения к столбцам:

Ветер - указаны скорость ветра в м/с - средняя за 10 мин, порывы в срок и между сроками (в фигурных скобках) и направление, откуда дует ветер: С - северный, СВ - северо-восточный, В - восточный, ЮВ - юго-восточный, Ю - южный, ЮЗ - юго-западный, З - западный, СЗ - северо-западный.
Видимость - горизонтальная дальность видимости в метрах или километрах. При видимости от 1 до 10 км при отсутствии осадков обычно наблюдается дымка, при ухудшении видимости до 1 км и менее - туман. В сухую погоду видимость может ухудшаться дымом, пылью или мглою.
Явления - указаны атмосферные явления, наблюдавшиеся в срок или в последний час перед сроком; фигурными скобками обозначены явления, наблюдавшиеся между сроками (за 1-3 часа до срока); квадратными скобками обозначены град или гололедные отложения с указанием их диаметра в мм.
Облачность - указаны через наклонную черту общая и нижняя облачность в баллах и высота нижней границы облаков в метрах; квадратными скобками обозначены формы облаков: Ci - перистые, Cs - перисто-слоистые, Cc - перисто-кучевые, Ac - высококучевые, As - высокослоистые, Sc - слоисто-кучевые, Ns - слоисто-дождевые, Cu - кучевые, Cb - кучево-дождевые. Подробнее классификацию облаков см. в Атласе облаков (PDF).
T - Температура воздуха - температура, измеренная на высоте 2 м над землей.
Td - Температура точки росы - температура, при понижении до которой содержащийся в воздухе водяной пар достигнет насыщения.
f - Относительная влажность воздуха - влажноcть воздуха, измеренная на высоте 2 м над землей.
Te - Эффективная температура - температура, которую ощущает одетый по сезону человек в тени. Характеристика душности погоды. При расчете учитывается влияние влажности воздуха и скорости ветра на теплоощущения человека.
Tes - Эффективная температура на солнце - температура, которую ощущает человек, с поправкой на солнечный нагрев. Характеристика знойности погоды. Зависит от высоты солнца над горизонтом, облачности и скорости ветра. Ночью, в пасмурную погоду, а также при ветре 12 м/с и более поправка равна нулю.
P - Атмосферное давление - приведенное к уровню моря атмосферное давление.
Po - Атмосферное давление - измеренное на уровне метеостанции атмосферное давление.
Tmin - Минимальная температура - минимум температуры воздуха на высоте 2 м над землей.
Tmax - Максимальная температура - максимум температуры воздуха на высоте 2 м над землей.
R - Количество осадков - Количество выпавших осадков за период времени, мм. При наведении курсора мыши на число - период времени, за который выпало указанное количество осадков.
R24 - Количество осадков - Количество выпавших осадков за 24 часа, мм.
S - Снежный покров - Высота снежного покрова, см. При наведении курсора мыши на число - состояние снежного покрова и степень покрытия местности в баллах.